RH
90 85 84 83 82 82 83 81 78 77 78 73 68 66 61 65 68 68 74 65 68 70 66 68 70 72 73 79 83 87 91 93 87 87 89 92 91 88 88 90 92 92 90
88 85 83 81 82 82 85 81 77 80 81 75 69 67 65 68 65 68 64 70 66 65 65 68 66 68 69 70 72 77 85 95 94 88 88 90 92 92 90 90 90 90 89
88 87 86 84 89 86 83 79 76 80 80 71 73 69 70 66 66 69 58 63 70 63 64 62 65 65 66 68 66 67 74 78 90 90 90 89 91 91 92 93 90 90 89
84 87 85 88 88 78 76 76 78 78 78 76 74 73 83 70 73 60 60 66 60 61 58 61 65 64 67 71 71 69 66 70 76 84 88 92 89 89 91 92 93 92 89
82 85 86 88 82 77 79 77 81 84 78 76 66 72 80 80 83 52 63 65 60 61 54 62 62 64 66 68 72 70 70 71 75 77 82 93 95 86 88 91 92 92 93
80 82 86 85 81 79 79 79 82 79 82 75 64 69 80 85 76 63 76 62 62 59 57 58 59 61 63 67 73 70 72 76 75 73 75 84 92 94 93 88 91 91 92
82 85 88 86 81 79 83 76 83 81 77 73 85 83 87 82 68 69 75 64 68 56 58 58 59 58 59 66 70 70 75 71 74 74 74 75 76 90 93 94 85 90 90
82 79 87 86 84 83 83 79 79 78 83 74 82 92 94 83 73 69 76 64 76 60 60 56 60 56 63 65 66 69 70 73 71 71 71 71 72 79 88 92 94 86 90
80 82 85 87 86 85 85 82 78 79 84 80 77 84 94 85 73 78 70 65 71 64 64 64 56 60 63 66 67 69 69 67 70 72 70 71 71 72 78 89 91 92 91
78 78 80 83 87 86 82 78 74 81 82 87 84 68 74 68 94 80 74 64 62 63 64 69 64 67 65 64 68 63 65 65 67 69 70 70 71 72 72 76 81 90 92
77 74 78 81 87 86 81 80 84 81 83 86 89 90 87 86 85 91 82 75 65 63 66 66 72 73 62 68 66 63 64 64 66 67 67 69 72 73 73 73 76 84 88
83 78 76 85 84 84 83 86 87 84 84 78 76 82 88 92 91 93 86 78 78 70 63 67 68 68 70 62 59 61 61 62 64 65 68 70 72 72 73 73 74 76 82
85 80 80 83 84 82 84 87 86 82 80 80 80 87 89 89 87 88 89 86 78 69 78 70 71 69 56 62 60 60 63 63 64 68 69 69 71 70 72 73 74 74 76
83 80 83 82 80 80 83 88 87 83 79 82 82 86 89 90 88 90 94 93 85 73 71 64 71 69 61 60 60 63 64 63 65 66 67 68 69 69 68 70 72 73 74
73 81 80 83 82 78 81 88 86 83 78 81 84 84 90 89 89 90 89 91 94 88 75 68 73 59 60 60 62 61 62 64 64 64 65 66 68 68 69 70 72 73 74
77 78 78 79 79 79 87 87 85 79 77 80 76 84 84 88 90 93 91 89 91 92 91 69 70 65 62 55 58 61 62 64 63 63 63 65 68 71 70 70 70 71 71
77 78 76 77 79 84 85 80 76 75 76 78 79 81 85 85 82 84 83 87 87 93 91 72 66 64 62 63 61 64 62 60 62 62 64 66 67 69 69 70 71 72 73
78 78 77 79 80 89 82 80 76 76 78 80 80 83 83 68 82 81 84 87 87 92 83 88 70 65 66 62 64 64 58 51 59 60 63 64 66 67 69 71 74 74 77
78 78 78 81 81 90 84 82 79 78 80 82 83 85 84 80 82 82 88 84 86 68 74 76 74 69 64 64 64 63 59 63 54 62 63 64 65 68 70 70 72 73 76
77 81 82 80 88 84 82 80 76 80 82 79 76 83 79 80 86 88 82 90 70 77 75 77 73 67 68 63 70 67 73 66 66 58 62 63 65 67 65 68 69 70 72
73 82 84 87 86 80 73 87 78 81 83 88 83 74 76 73 66 70 80 86 84 90 83 74 75 77 73 85 75 70 76 74 73 70 75 78 71 71 74 72 70 70 70
78 86 82 87 84 67 67 73 81 90 78 78 86 87 81 72 78 69 73 75 85 86 90 86 84 86 84 75 77 85 84 90 89 75 79 78 73 77 74 73 69 69 72
79 80 86 84 82 80 65 68 64 84 90 92 92 90 78 73 82 88 84 81 78 70 72 91 96 91 87 83 87 90 86 84 84 78 82 89 80 82 74 62 70 73 77
72 77 82 82 81 67 61 63 61 64 71 86 92 94 93 93 90 82 90 95 93 88 90 91 88 85 84 82 84 87 94 90 85 80 77 91 82 84 82 79 70 71 73
72 75 75 72 72 70 61 61 59 61 58 70 63 78 86 91 75 64 82 91 89 88 81 70 67 69 70 68 71 86 87 91 88 83 79 87 85 85 83 84 81 76 76
65 65 66 72 66 68 60 58 58 57 70 69 71 69 71 70 62 61 75 87 92 92 85 84 86 84 79 82 74 85 93 94 91 90 76 88 88 88 91 81 88 78 83
Wind_Speed
5 4 4 4 5 5 6 6 6 6 7 8 7 8 8 8 8 5 3 17 19 21 23 23 24 25 26 24 25 26 22 32 25 20 20 19 18 18 16 13 11 12 12
5 5 5 6 7 6 5 6 6 6 6 7 8 8 8 7 7 7 5 6 18 21 22 25 25 25 23 23 23 23 22 29 8 18 21 20 19 19 18 17 16 14 14
6 5 5 6 5 4 5 5 6 4 6 7 7 6 6 8 7 7 7 6 7 17 23 26 24 26 25 22 20 20 21 22 17 18 18 23 22 20 20 19 19 19 17
6 5 5 5 4 4 5 5 7 6 7 7 8 6 4 5 6 8 7 7 8 9 14 24 24 24 25 25 23 22 20 21 23 22 26 19 23 21 21 20 20 21 20
6 5 5 5 5 6 6 6 5 5 7 8 8 5 4 4 5 7 8 9 10 10 9 17 24 22 24 24 23 21 21 22 22 25 24 27 13 23 23 21 20 21 21
6 6 6 6 5 5 6 5 5 5 5 8 7 6 5 4 5 7 6 8 8 11 11 12 10 11 23 23 22 23 19 22 23 24 25 21 22 18 21 22 23 22 22
6 6 5 5 4 6 5 6 4 6 8 10 4 5 4 3 7 5 4 6 8 12 12 12 9 8 9 20 21 22 19 20 21 25 25 25 24 24 21 23 26 24 24
6 6 5 5 5 4 5 6 7 5 4 9 6 2 5 5 6 4 4 7 7 10 10 12 10 12 9 7 14 21 21 23 25 23 23 24 24 22 23 21 27 27 26
6 7 6 5 5 4 4 5 5 7 6 5 8 4 4 4 9 4 6 8 8 9 8 9 12 10 10 7 11 13 25 27 26 25 25 25 24 22 18 18 21 14 22
6 7 6 5 5 4 5 4 5 3 4 6 3 6 3 4 3 7 3 10 11 10 11 8 10 8 8 8 13 19 25 26 26 27 25 25 24 24 22 21 23 23 24
6 6 6 5 6 4 4 5 5 8 6 4 4 3 3 4 2 4 8 9 11 8 7 9 7 6 8 6 8 15 25 26 27 27 26 25 26 25 25 23 21 21 22
4 5 6 5 5 5 4 4 6 8 6 5 4 4 2 2 4 3 8 12 12 8 11 6 6 5 6 8 14 25 25 26 25 28 26 26 26 26 26 24 22 21 23
3 4 5 5 4 4 5 5 6 6 5 4 4 2 3 3 3 3 5 8 11 11 3 4 4 6 9 10 11 24 24 23 25 26 28 27 25 25 26 26 25 21 20
5 5 5 5 5 5 5 5 4 4 5 4 6 4 3 3 3 3 5 7 11 6 6 13 2 4 10 10 18 25 11 23 24 27 27 28 26 24 25 27 27 26 24
6 6 6 6 5 6 5 6 4 4 4 4 4 5 3 4 4 4 5 3 5 11 13 6 7 11 11 11 15 14 12 20 25 25 27 28 28 26 26 24 26 25 25
8 7 6 6 5 5 6 5 4 5 4 4 4 5 5 4 5 5 5 4 5 8 10 10 10 13 12 11 15 15 14 24 22 23 25 28 31 30 27 27 26 27 26
8 7 6 6 5 5 5 4 5 4 5 5 5 5 7 7 6 6 6 5 7 7 12 9 10 11 14 14 13 12 14 13 10 23 26 26 29 32 30 28 27 26 26
7 7 6 6 5 5 4 5 4 3 5 5 6 6 6 7 7 7 6 8 8 5 9 18 12 11 12 14 14 15 11 12 12 19 26 28 29 31 31 27 26 25 25
7 6 6 6 6 6 5 4 4 4 4 4 5 6 6 7 7 7 7 8 7 8 10 12 14 10 11 11 14 12 13 13 11 22 25 28 27 27 29 28 26 29 29
7 6 6 6 6 6 5 4 5 4 4 4 5 5 6 8 8 7 8 7 9 9 10 11 12 12 11 13 10 14 14 12 13 12 18 21 24 25 31 35 31 29 28
6 6 7 5 7 6 4 4 5 4 3 3 5 6 6 10 14 13 8 8 10 9 9 11 12 12 12 10 14 13 14 15 13 13 11 9 14 13 14 23 25 27 27
6 8 6 8 6 5 8 10 6 3 3 4 5 5 6 8 10 17 17 20 15 11 11 10 11 13 12 14 13 13 14 13 17 6 14 16 12 13 13 13 27 30 30
7 7 7 7 6 5 6 5 6 1 2 3 4 5 7 7 11 8 14 11 12 18 16 11 13 12 17 15 15 16 15 15 16 13 15 17 12 15 13 15 29 31 31
9 7 8 7 5 5 4 6 5 1 3 3 4 4 5 6 8 13 7 4 5 9 9 8 11 14 14 15 14 14 16 17 15 11 12 18 13 16 13 13 33 35 33
8 7 8 7 5 3 5 6 4 3 5 5 6 5 5 5 15 20 8 6 8 9 9 20 23 24 25 25 22 12 12 14 14 13 12 13 10 16 16 16 15 25 21
10 8 9 5 7 3 7 6 5 3 4 4 4 6 11 13 20 20 11 8 10 10 11 13 12 14 16 15 22 11 10 12 14 14 8 11 13 11 10 8 6 13 10
Wind_Direction
66 55 47 45 41 32 32 24 16 7 2 358 357 358 356 350 349 349 350 10 18 22 18 19 20 26 23 16 13 2 352 305 237 220 231 227 216 208 204 201 202 199 188
75 58 52 48 45 33 28 26 14 4 359 352 350 352 349 350 346 353 4 355 18 26 23 22 18 19 22 23 14 4 1 4 238 271 227 225 223 215 206 201 198 206 203
77 74 63 57 49 34 24 37 21 11 2 351 345 343 351 348 344 8 9 10 12 21 24 14 15 16 15 14 9 5 357 360 4 323 325 232 220 215 215 207 201 198 207
77 67 65 61 52 43 37 35 23 19 5 352 337 336 341 346 346 21 10 18 16 23 15 13 14 13 13 12 12 5 4 7 2 359 350 289 225 214 214 212 210 204 203
76 74 75 69 55 47 36 26 22 11 4 349 330 331 335 353 32 12 19 40 17 21 9 8 8 10 11 13 8 5 7 2 1 4 1 11 270 239 216 211 211 210 205
81 82 75 67 54 52 41 28 36 17 10 345 328 332 329 1 50 11 8 31 21 18 8 5 2 0 3 9 7 9 8 6 360 355 358 4 354 7 343 239 207 208 207
81 82 79 72 63 64 51 35 19 18 21 4 347 342 344 26 33 26 26 19 15 8 6 358 353 357 352 358 358 4 10 5 2 354 349 347 342 0 339 347 232 208 205
101 94 93 77 66 64 48 38 36 27 15 20 12 317 4 338 1 351 11 13 12 1 352 350 346 347 345 348 357 1 4 3 355 346 341 340 343 345 338 342 334 221 206
94 89 80 78 75 68 59 43 37 36 32 21 39 47 357 345 330 325 349 358 355 349 342 337 344 339 340 344 356 353 5 351 349 344 341 335 333 330 329 334 311 304 232
89 80 80 74 66 63 56 40 32 31 48 35 21 32 12 328 325 318 340 325 343 333 333 337 330 331 338 350 358 355 351 347 337 337 334 331 329 325 324 325 319 315 295
87 84 79 73 68 67 61 51 46 51 45 54 35 4 14 318 331 317 308 330 322 339 335 324 322 325 338 359 347 348 342 336 334 327 328 327 322 319 315 316 312 315 312
97 88 88 82 78 69 59 62 66 61 58 57 32 15 6 333 323 322 311 324 315 325 319 330 318 333 342 360 350 336 335 334 328 323 322 324 318 317 314 311 308 306 312
115 106 101 93 88 83 67 73 77 65 49 48 36 357 338 316 307 313 306 309 317 318 322 310 316 347 0 343 330 333 334 328 327 321 319 319 315 316 312 310 308 304 301
129 123 113 104 92 83 74 76 77 65 41 27 11 357 321 303 318 315 305 330 323 318 320 323 327 356 341 334 326 329 321 326 322 319 317 315 311 310 313 307 303 302 300
131 131 122 113 105 81 80 97 86 60 43 21 359 347 333 316 314 302 301 326 312 316 317 325 331 336 331 323 318 321 322 316 320 319 314 312 310 308 307 302 299 299 295
130 136 127 120 108 93 93 105 81 44 31 10 12 347 345 324 314 310 330 309 294 294 293 322 318 322 320 315 315 319 313 319 315 313 315 312 309 304 303 302 296 294 290
144 146 140 131 123 112 110 94 85 43 30 10 358 354 338 328 354 325 321 313 304 284 299 308 312 314 315 313 312 312 311 310 306 314 311 306 305 302 302 299 295 292 290
154 149 145 135 123 120 119 97 76 46 31 8 348 335 345 348 327 320 319 318 308 331 311 308 316 318 314 314 310 312 313 310 309 306 310 308 302 299 299 295 294 292 288
152 146 149 137 128 135 120 107 83 45 21 353 342 336 347 337 321 317 323 318 338 326 309 305 311 311 316 315 312 312 315 309 305 309 307 303 302 298 297 294 296 295 286
141 159 150 133 128 130 128 122 85 48 7 3 353 346 337 326 302 333 326 335 326 314 308 304 309 318 319 316 311 320 316 314 311 308 302 298 302 303 300 295 293 289 285
140 142 130 119 126 136 135 115 85 49 356 340 340 342 340 319 346 337 331 316 310 306 325 314 312 315 315 327 323 318 309 311 308 305 300 302 301 296 291 293 289 288 285
133 125 131 139 143 132 119 126 110 66 349 338 330 323 323 343 332 330 319 317 327 330 317 312 312 305 323 318 311 312 307 312 311 296 315 299 299 293 290 285 286 287 284
120 126 124 134 126 129 113 104 85 57 289 299 296 306 329 335 322 303 300 329 324 322 317 308 298 324 313 310 308 307 308 303 298 307 298 294 299 289 289 284 286 284 279
128 130 132 128 128 107 86 71 72 301 318 294 276 284 289 291 302 313 330 302 296 301 295 302 316 306 300 306 306 310 303 303 292 292 293 290 300 289 288 286 286 283 282
119 121 124 112 104 72 70 42 39 359 342 316 338 323 316 309 309 334 344 319 312 300 310 320 316 315 315 315 314 315 309 306 303 301 296 290 294 301 292 283 274 276 281
124 119 117 118 118 96 55 23 12 352 328 325 329 331 330 331 333 338 340 338 318 322 334 325 317 315 312 306 313 305 305 300 300 302 290 305 300 308 300 269 291 307 282